Location: Del Amo
(33.8464°N, 118.2104°W)
Time: 05:29:56
(UTC+00:00)

HTV-X1 - Pass Details

Date: 22 May 2026
Orbit: 368 x 378 km, 51.6° (Epoch: 26 May)

Event Time Altitude Azimuth Distance (km) Brightness Sun altitude
Rises 05:32:41 0° 325° (NW) 2,217 ? -26.7°
Reaches altitude 10° 05:35:02 10° 342° (NNW) 1,367 ? -27.0°
Enters shadow 05:35:48 14° 353° (N) 1,137 ? -27.1°
